Stündliche Wetter Bolshie Osetki

Heute, 2 Oktober, Freitag

Zeit Temperatur Niederschläge Wind Luftdruck Luftfeuchtigkeit
00:00 +11°C° 0 mm 3 m/S 750 mmHg 66%
01:00 +10°C° 0 mm 3 m/S 750 mmHg 67%
02:00 +10°C° 0 mm 3 m/S 750 mmHg 69%
03:00 +9°C° 0 mm 3 m/S 750 mmHg 69%
04:00 +9°C° 0 mm 3 m/S 750 mmHg 69%
05:00 +8°C° 0 mm 4 m/S 749 mmHg 69%
06:00 +10°C° 0 mm 4 m/S 750 mmHg 68%
07:00 +10°C° 0 mm 4 m/S 750 mmHg 67%
08:00 +11°C° 0 mm 4 m/S 750 mmHg 66%
09:00 +12°C° 0 mm 4 m/S 750 mmHg 62%
10:00 +13°C° 0 mm 4 m/S 750 mmHg 58%
11:00 +14°C° 0 mm 5 m/S 750 mmHg 54%
12:00 +15°C° 0 mm 5 m/S 750 mmHg 54%
13:00 +15°C° 0 mm 5 m/S 750 mmHg 55%
14:00 +15°C° 0 mm 4 m/S 750 mmHg 55%
15:00 +14°C° 0 mm 4 m/S 750 mmHg 57%
16:00 +14°C° 0 mm 4 m/S 751 mmHg 60%
17:00 +13°C° 0 mm 4 m/S 751 mmHg 62%
18:00 +13°C° 0 mm 4 m/S 751 mmHg 64%
19:00 +12°C° 0 mm 3 m/S 751 mmHg 67%
20:00 +11°C° 0 mm 3 m/S 751 mmHg 70%
21:00 +11°C° 0 mm 3 m/S 751 mmHg 71%
22:00 +11°C° 0 mm 3 m/S 751 mmHg 73%
23:00 +10°C° 0 mm 3 m/S 751 mmHg 75%

Morgen, 3 Oktober, Samstag

Zeit Temperatur Niederschläge Wind Luftdruck Luftfeuchtigkeit
00:00 +10°C° 0 mm 3 m/S 751 mmHg 74%
01:00 +10°C° 0 mm 3 m/S 751 mmHg 74%
02:00 +10°C° 0 mm 4 m/S 751 mmHg 73%
03:00 +10°C° 0 mm 4 m/S 751 mmHg 73%
04:00 +10°C° 0 mm 4 m/S 751 mmHg 73%
05:00 +10°C° 0 mm 4 m/S 751 mmHg 73%
06:00 +10°C° 0 mm 4 m/S 751 mmHg 72%
07:00 +11°C° 0 mm 4 m/S 751 mmHg 71%
08:00 +11°C° 0 mm 4 m/S 751 mmHg 70%
09:00 +13°C° 0 mm 4 m/S 751 mmHg 66%
10:00 +14°C° 0 mm 4 m/S 751 mmHg 62%
11:00 +15°C° 0 mm 5 m/S 751 mmHg 58%
12:00 +16°C° 0 mm 5 m/S 751 mmHg 59%
13:00 +17°C° 0 mm 4 m/S 751 mmHg 60%
14:00 +17°C° 0 mm 4 m/S 751 mmHg 62%
15:00 +15°C° 0 mm 4 m/S 751 mmHg 66%
16:00 +15°C° 0 mm 4 m/S 750 mmHg 70%
17:00 +15°C° 0 mm 4 m/S 750 mmHg 75%
18:00 +14°C° 0.1 mm 4 m/S 750 mmHg 76%
19:00 +14°C° 0.1 mm 4 m/S 750 mmHg 78%
20:00 +14°C° 0.1 mm 4 m/S 751 mmHg 79%
21:00 +13°C° 0.1 mm 4 m/S 751 mmHg 80%
22:00 +13°C° 0.1 mm 4 m/S 751 mmHg 80%
23:00 +13°C° 0.1 mm 5 m/S 751 mmHg 81%

übermorgen, 4 Oktober, Sonntag

Zeit Temperatur Niederschläge Wind Luftdruck Luftfeuchtigkeit
00:00 +13°C° 0.7 mm 4 m/S 751 mmHg 83%
01:00 +12°C° 0.7 mm 4 m/S 751 mmHg 86%
02:00 +12°C° 0.7 mm 4 m/S 750 mmHg 89%
03:00 +12°C° 0.3 mm 5 m/S 750 mmHg 88%
04:00 +12°C° 0.3 mm 5 m/S 750 mmHg 86%
05:00 +12°C° 0.3 mm 5 m/S 750 mmHg 84%
06:00 +12°C° 0 mm 5 m/S 750 mmHg 85%
07:00 +12°C° 0 mm 5 m/S 749 mmHg 86%
08:00 +13°C° 0 mm 5 m/S 749 mmHg 86%
09:00 +14°C° 0 mm 6 m/S 749 mmHg 82%
10:00 +15°C° 0 mm 6 m/S 749 mmHg 79%
11:00 +16°C° 0 mm 6 m/S 749 mmHg 75%
12:00 +16°C° 0.1 mm 6 m/S 749 mmHg 76%
13:00 +16°C° 0.1 mm 6 m/S 749 mmHg 77%
14:00 +16°C° 0.1 mm 5 m/S 749 mmHg 78%
15:00 +16°C° 0.1 mm 6 m/S 749 mmHg 78%
16:00 +16°C° 0.1 mm 6 m/S 749 mmHg 78%
17:00 +16°C° 0.1 mm 6 m/S 749 mmHg 78%
18:00 +16°C° 0 mm 6 m/S 749 mmHg 79%
19:00 +15°C° 0 mm 6 m/S 749 mmHg 80%
20:00 +15°C° 0 mm 6 m/S 750 mmHg 81%
21:00 +15°C° 0 mm 6 m/S 750 mmHg 81%
22:00 +15°C° 0 mm 6 m/S 750 mmHg 81%
23:00 +15°C° 0 mm 5 m/S 750 mmHg 82%

5 Oktober, Montag

Zeit Temperatur Niederschläge Wind Luftdruck Luftfeuchtigkeit
00:00 +15°C° 0.1 mm 5 m/S 750 mmHg 82%
01:00 +15°C° 0.1 mm 5 m/S 750 mmHg 81%
02:00 +15°C° 0.1 mm 5 m/S 750 mmHg 81%
03:00 +14°C° 0.1 mm 5 m/S 750 mmHg 82%
04:00 +14°C° 0.1 mm 5 m/S 750 mmHg 83%
05:00 +14°C° 0.1 mm 5 m/S 750 mmHg 83%
06:00 +14°C° 0.1 mm 5 m/S 750 mmHg 83%
07:00 +14°C° 0.1 mm 5 m/S 750 mmHg 82%
08:00 +14°C° 0.1 mm 5 m/S 750 mmHg 82%
09:00 +14°C° 0.2 mm 5 m/S 750 mmHg 81%
10:00 +15°C° 0.2 mm 5 m/S 750 mmHg 80%
11:00 +15°C° 0.2 mm 5 m/S 750 mmHg 79%
12:00 +15°C° 0.5 mm 5 m/S 750 mmHg 78%
13:00 +16°C° 0.5 mm 5 m/S 750 mmHg 77%
14:00 +16°C° 0.5 mm 5 m/S 750 mmHg 76%
15:00 +17°C° 0 mm 4 m/S 749 mmHg 73%
16:00 +17°C° 0 mm 4 m/S 749 mmHg 70%
17:00 +17°C° 0 mm 4 m/S 749 mmHg 68%
18:00 +15°C° 0 mm 4 m/S 749 mmHg 66%
19:00 +15°C° 0 mm 4 m/S 748 mmHg 64%
20:00 +14°C° 0 mm 4 m/S 748 mmHg 62%
21:00 +14°C° 0 mm 4 m/S 748 mmHg 61%
22:00 +13°C° 0 mm 4 m/S 748 mmHg 60%
23:00 +13°C° 0 mm 4 m/S 748 mmHg 59%

6 Oktober, Dienstag

Zeit Temperatur Niederschläge Wind Luftdruck Luftfeuchtigkeit
00:00 +14°C° 0 mm 4 m/S 748 mmHg 58%
01:00 +14°C° 0 mm 5 m/S 747 mmHg 58%
02:00 +14°C° 0 mm 5 m/S 747 mmHg 57%
03:00 +14°C° 0 mm 5 m/S 747 mmHg 59%
04:00 +14°C° 0 mm 5 m/S 747 mmHg 62%
05:00 +14°C° 0 mm 5 m/S 747 mmHg 64%
06:00 +14°C° 0 mm 5 m/S 747 mmHg 65%
07:00 +14°C° 0 mm 5 m/S 747 mmHg 66%
08:00 +14°C° 0 mm 4 m/S 747 mmHg 68%
09:00 +15°C° 0 mm 5 m/S 747 mmHg 67%
10:00 +17°C° 0 mm 5 m/S 747 mmHg 67%
11:00 +19°C° 0 mm 5 m/S 747 mmHg 66%
12:00 +19°C° 0 mm 4 m/S 747 mmHg 69%
13:00 +19°C° 0 mm 4 m/S 747 mmHg 71%
14:00 +19°C° 0 mm 4 m/S 747 mmHg 74%
15:00 +18°C° 0 mm 4 m/S 747 mmHg 74%
16:00 +18°C° 0 mm 3 m/S 747 mmHg 75%
17:00 +17°C° 0 mm 3 m/S 747 mmHg 75%
18:00 +17°C° 0 mm 3 m/S 747 mmHg 77%
19:00 +16°C° 0 mm 3 m/S 747 mmHg 79%
20:00 +14°C° 0 mm 3 m/S 747 mmHg 81%
21:00 +14°C° 0.1 mm 3 m/S 747 mmHg 82%
22:00 +15°C° 0.1 mm 2 m/S 747 mmHg 82%
23:00 +15°C° 0.1 mm 2 m/S 748 mmHg 83%

7 Oktober, Mittwoch

Zeit Temperatur Niederschläge Wind Luftdruck Luftfeuchtigkeit
00:00 +14°C° 0 mm 3 m/S 747 mmHg 78%
01:00 +13°C° 0 mm 3 m/S 747 mmHg 73%
02:00 +13°C° 0 mm 3 m/S 747 mmHg 69%
03:00 +13°C° 0 mm 4 m/S 746 mmHg 67%
04:00 +13°C° 0 mm 4 m/S 746 mmHg 64%
05:00 +13°C° 0 mm 4 m/S 746 mmHg 62%
06:00 +13°C° 0 mm 4 m/S 746 mmHg 62%
07:00 +13°C° 0 mm 5 m/S 746 mmHg 62%
08:00 +13°C° 0 mm 5 m/S 746 mmHg 62%
09:00 +14°C° 0 mm 5 m/S 746 mmHg 62%
10:00 +15°C° 0 mm 5 m/S 746 mmHg 61%
11:00 +15°C° 0 mm 5 m/S 746 mmHg 60%
12:00 +16°C° 0 mm 5 m/S 747 mmHg 62%
13:00 +16°C° 0 mm 5 m/S 747 mmHg 63%
14:00 +17°C° 0 mm 5 m/S 747 mmHg 65%
15:00 +17°C° 0 mm 4 m/S 748 mmHg 70%
16:00 +17°C° 0 mm 4 m/S 748 mmHg 76%
17:00 +16°C° 0 mm 3 m/S 748 mmHg 82%
18:00 +16°C° 0 mm 3 m/S 749 mmHg 85%
19:00 +16°C° 0 mm 2 m/S 749 mmHg 88%
20:00 +15°C° 0 mm 2 m/S 749 mmHg 91%
21:00 +15°C° 0 mm 1 m/S 750 mmHg 92%
22:00 +14°C° 0 mm 1 m/S 750 mmHg 93%
23:00 +14°C° 0 mm 1 m/S 750 mmHg 94%
Mehr zeigen

We Need Your Consent

Meteoprog and our Service Providers may store and access personal data such as cookies, device identifiers or other similar technologies on your device and process such data to personalise content and ads, as well as provide social media features and to analyse the traffic.

  • Store and/or access information on your device

    Cookies, device identifiers or other information can be stored or accessed on your device for the purposes indicated above.

  • Personalised ads and content, ad and content measurement, audience insights, and products development

    Ads and content can be personalised based on a profile. More data can be added to better personalise ads and content. Ad and content performance can be measured. Insights about the audience who saw the ads and content can be derived. Such data can be used to develop or improve user’s experience, systems and software.

By clicking ‘I Agree’ you will allow the use of indicated cookies, device identifiers, web beacons or other similar technologies. Your settings can be changed in the browser on your device.

For certain purposes, legitimate interests may be relied on, rather than consent. You can read more about this in our Privacy and Cookie Policy.